{"data":{"norad_id":58133,"intl_designator":"2023-162R","name":"STARLINK-30758","alt_names":[],"object_type":"PAYLOAD","status":"ACTIVE","operator":null,"country":"US","launch_date":"2023-10-22","launch_site_code":"AFETR","launch_vehicle":null,"mission":null,"orbit_class":"UNKNOWN","rcs_meters":null,"size_class":null,"mass_kg":null,"dimensions":null,"purposes":["comms"],"wikipedia_slug":null,"has_3d_model":false,"image_url":null,"decayed_at":null,"tle_current":{"epoch":"2026-05-25T04:19:41.344032Z","epoch_age_seconds":55542,"freshness":"FRESH","line1":"1 58133U 23162R   26145.18033963  .00001086  00000+0  48982-4 0  9994","line2":"2 58133  43.0046  57.2460 0001004 272.2996  87.7741 15.27574260144041","mean_motion":15.2757426,"eccentricity":0.0001004,"inclination_deg":43.0046,"raan_deg":57.246,"arg_perigee_deg":272.2996,"mean_anomaly_deg":87.7741,"bstar":4.8982e-5,"rev_number":14404,"period_min":94.267102929582,"perigee_km":482.37741890874,"apogee_km":483.75514852811,"semimajor_km":6861.2032837184,"source":"CELESTRAK","updated_at":"2026-05-25T13:38:18.533959Z"}}}